• In United Kingdom
  • List of Countries
  • For 7 days
  • Water Temperature
  • Satellite Maps
  • Weather Map
  • Weather Widgets
  • user-avatar
    Login

    Hourly Weather Prutz

    Today, 22 October, Monday

    Time Temperature Precipitation Wind Pressure Humidity
    00:00 +2°C° 0 mm 1 mps 636 mmHg 64%
    01:00 +2°C° 0 mm 1 mps 636 mmHg 57%
    02:00 +2°C° 0 mm 1 mps 636 mmHg 54%
    03:00 +2°C° 0 mm 1 mps 636 mmHg 52%
    04:00 +2°C° 0 mm 1 mps 636 mmHg 50%
    05:00 +2°C° 0 mm 1 mps 636 mmHg 48%
    06:00 +2°C° 0 mm 1 mps 636 mmHg 47%
    07:00 +2°C° 0 mm 1 mps 636 mmHg 43%
    08:00 +5°C° 0 mm 1 mps 637 mmHg 39%
    09:00 +6°C° 0 mm 2 mps 638 mmHg 35%
    10:00 +9°C° 0 mm 2 mps 638 mmHg 31%
    11:00 +10°C° 0 mm 2 mps 638 mmHg 32%
    12:00 +10°C° 0 mm 2 mps 639 mmHg 34%
    13:00 +11°C° 0 mm 3 mps 639 mmHg 35%
    14:00 +10°C° 0 mm 3 mps 638 mmHg 42%
    15:00 +9°C° 0 mm 3 mps 638 mmHg 48%
    16:00 +8°C° 0 mm 3 mps 638 mmHg 54%
    17:00 +6°C° 0 mm 2 mps 638 mmHg 66%
    18:00 +4°C° 0 mm 2 mps 638 mmHg 77%
    19:00 +2°C° 0 mm 1 mps 637 mmHg 88%
    20:00 +2°C° 0 mm 1 mps 638 mmHg 88%
    21:00 +2°C° 0 mm 1 mps 638 mmHg 88%
    22:00 +2°C° 0 mm 1 mps 638 mmHg 89%
    23:00 +2°C° 0 mm 1 mps 639 mmHg 87%

    Tomorrow, 23 October, Tuesday

    Time Temperature Precipitation Wind Pressure Humidity
    00:00 +2°C° 0 mm 1 mps 639 mmHg 86%
    01:00 +2°C° 0 mm 1 mps 639 mmHg 85%
    02:00 +2°C° 0 mm 1 mps 638 mmHg 83%
    03:00 +2°C° 0 mm 1 mps 638 mmHg 81%
    04:00 +2°C° 0 mm 1 mps 638 mmHg 79%
    05:00 +2°C° 0 mm 1 mps 638 mmHg 79%
    06:00 +2°C° 0 mm 1 mps 638 mmHg 80%
    07:00 +2°C° 0 mm 1 mps 638 mmHg 80%
    08:00 +5°C° 0 mm 1 mps 639 mmHg 69%
    09:00 +6°C° 0 mm 2 mps 640 mmHg 58%
    10:00 +9°C° 0 mm 2 mps 640 mmHg 47%
    11:00 +10°C° 0 mm 2 mps 640 mmHg 44%
    12:00 +12°C° 0 mm 2 mps 640 mmHg 40%
    13:00 +11°C° 0 mm 3 mps 640 mmHg 36%
    14:00 +12°C° 0 mm 2 mps 640 mmHg 40%
    15:00 +10°C° 0 mm 2 mps 639 mmHg 44%
    16:00 +9°C° 0 mm 2 mps 639 mmHg 49%
    17:00 +7°C° 0 mm 2 mps 638 mmHg 57%
    18:00 +5°C° 0 mm 2 mps 638 mmHg 66%
    19:00 +3°C° 0 mm 2 mps 637 mmHg 75%
    20:00 +4°C° 0 mm 2 mps 637 mmHg 72%
    21:00 +4°C° 0 mm 2 mps 637 mmHg 68%
    22:00 +4°C° 0 mm 2 mps 638 mmHg 65%
    23:00 +4°C° 0 mm 2 mps 637 mmHg 62%

    Day after tomorrow, 24 October, Wednesday

    Time Temperature Precipitation Wind Pressure Humidity
    00:00 +4°C° 0 mm 2 mps 637 mmHg 59%
    01:00 +4°C° 0 mm 2 mps 637 mmHg 56%
    02:00 +4°C° 0 mm 2 mps 637 mmHg 56%
    03:00 +4°C° 0 mm 2 mps 637 mmHg 56%
    04:00 +4°C° 0 mm 2 mps 637 mmHg 56%
    05:00 +4°C° 0.2 mm 2 mps 636 mmHg 62%
    06:00 +4°C° 0.2 mm 2 mps 636 mmHg 69%
    07:00 +4°C° 0.2 mm 2 mps 636 mmHg 75%
    08:00 +4°C° 0.3 mm 3 mps 636 mmHg 78%
    09:00 +5°C° 0.3 mm 3 mps 636 mmHg 80%
    10:00 +7°C° 0.3 mm 3 mps 636 mmHg 82%
    11:00 +7°C° 0.4 mm 3 mps 636 mmHg 83%
    12:00 +7°C° 0.4 mm 3 mps 636 mmHg 84%
    13:00 +8°C° 0.4 mm 3 mps 636 mmHg 85%
    14:00 +8°C° 0.4 mm 3 mps 636 mmHg 86%
    15:00 +7°C° 0.4 mm 3 mps 636 mmHg 88%
    16:00 +7°C° 0.4 mm 3 mps 636 mmHg 89%
    17:00 +7°C° 0.2 mm 3 mps 636 mmHg 91%
    18:00 +5°C° 0.2 mm 3 mps 636 mmHg 93%
    19:00 +6°C° 0.2 mm 2 mps 636 mmHg 95%
    20:00 +6°C° 0.1 mm 2 mps 636 mmHg 95%
    21:00 +6°C° 0.1 mm 2 mps 636 mmHg 96%
    22:00 +6°C° 0.1 mm 2 mps 637 mmHg 96%
    23:00 +5°C° 0 mm 2 mps 636 mmHg 96%

    25 October, Thursday

    Time Temperature Precipitation Wind Pressure Humidity
    00:00 +5°C° 0 mm 2 mps 636 mmHg 96%
    01:00 +6°C° 0 mm 1 mps 636 mmHg 96%
    02:00 +5°C° 0 mm 1 mps 636 mmHg 95%
    03:00 +5°C° 0 mm 1 mps 635 mmHg 95%
    04:00 +4°C° 0 mm 1 mps 635 mmHg 95%
    05:00 +4°C° 0 mm 1 mps 634 mmHg 92%
    06:00 +3°C° 0 mm 1 mps 634 mmHg 89%
    07:00 +3°C° 0 mm 1 mps 634 mmHg 86%
    08:00 +6°C° 0 mm 1 mps 635 mmHg 75%
    09:00 +9°C° 0 mm 1 mps 636 mmHg 63%
    10:00 +12°C° 0 mm 1 mps 636 mmHg 52%
    11:00 +13°C° 0 mm 1 mps 636 mmHg 47%
    12:00 +14°C° 0 mm 2 mps 636 mmHg 42%
    13:00 +15°C° 0 mm 2 mps 636 mmHg 37%
    14:00 +14°C° 0 mm 2 mps 636 mmHg 44%
    15:00 +13°C° 0 mm 1 mps 635 mmHg 51%
    16:00 +12°C° 0 mm 1 mps 634 mmHg 57%
    17:00 +9°C° 0 mm 1 mps 634 mmHg 65%
    18:00 +7°C° 0 mm 1 mps 633 mmHg 72%
    19:00 +5°C° 0 mm 1 mps 632 mmHg 79%
    20:00 +5°C° 0 mm 1 mps 632 mmHg 75%
    21:00 +5°C° 0 mm 1 mps 632 mmHg 72%
    22:00 +4°C° 0 mm 1 mps 632 mmHg 68%
    23:00 +4°C° 0 mm 1 mps 632 mmHg 63%

    26 October, Friday

    Time Temperature Precipitation Wind Pressure Humidity
    00:00 +5°C° 0 mm 1 mps 631 mmHg 57%
    01:00 +5°C° 0 mm 1 mps 631 mmHg 52%
    02:00 +5°C° 0 mm 1 mps 631 mmHg 47%
    03:00 +4°C° 0 mm 2 mps 631 mmHg 43%
    04:00 +4°C° 0 mm 2 mps 630 mmHg 39%
    05:00 +4°C° 0 mm 2 mps 630 mmHg 39%
    06:00 +4°C° 0 mm 2 mps 630 mmHg 39%
    07:00 +4°C° 0 mm 2 mps 630 mmHg 39%
    08:00 +6°C° 0 mm 2 mps 630 mmHg 38%
    09:00 +9°C° 0 mm 2 mps 631 mmHg 37%
    10:00 +12°C° 0 mm 2 mps 631 mmHg 37%
    11:00 +13°C° 0 mm 2 mps 631 mmHg 37%
    12:00 +14°C° 0 mm 2 mps 631 mmHg 38%
    13:00 +14°C° 0 mm 2 mps 631 mmHg 38%
    14:00 +13°C° 0 mm 2 mps 630 mmHg 46%
    15:00 +12°C° 0 mm 2 mps 630 mmHg 54%
    16:00 +10°C° 0 mm 2 mps 629 mmHg 62%
    17:00 +9°C° 0 mm 2 mps 629 mmHg 68%
    18:00 +7°C° 0 mm 2 mps 628 mmHg 75%
    19:00 +6°C° 0 mm 2 mps 628 mmHg 81%
    20:00 +6°C° 0 mm 2 mps 627 mmHg 82%
    21:00 +6°C° 0 mm 2 mps 627 mmHg 83%
    22:00 +6°C° 0 mm 2 mps 627 mmHg 84%
    23:00 +6°C° 0.1 mm 2 mps 627 mmHg 86%

    27 October, Saturday

    Time Temperature Precipitation Wind Pressure Humidity
    00:00 +5°C° 0.1 mm 2 mps 626 mmHg 87%
    01:00 +5°C° 0.1 mm 2 mps 626 mmHg 89%
    02:00 +5°C° 0.4 mm 2 mps 625 mmHg 90%
    03:00 +5°C° 0.4 mm 2 mps 625 mmHg 91%
    04:00 +5°C° 0.4 mm 2 mps 625 mmHg 92%
    05:00 +5°C° 0.9 mm 2 mps 624 mmHg 92%
    06:00 +5°C° 0.9 mm 2 mps 624 mmHg 93%
    07:00 +5°C° 0.9 mm 2 mps 623 mmHg 93%
    08:00 +5°C° 1.3 mm 2 mps 623 mmHg 93%
    09:00 +5°C° 1.3 mm 2 mps 623 mmHg 93%
    10:00 +6°C° 1.3 mm 2 mps 623 mmHg 93%
    11:00 +5°C° 2.5 mm 2 mps 622 mmHg 94%
    12:00 +5°C° 2.5 mm 2 mps 622 mmHg 95%
    13:00 +4°C° 2.5 mm 2 mps 622 mmHg 96%
    14:00 +4°C° 2.8 mm 2 mps 621 mmHg 96%
    15:00 +3°C° 2.8 mm 2 mps 621 mmHg 96%
    16:00 +3°C° 2.8 mm 2 mps 620 mmHg 97%
    17:00 +2°C° 2.8 mm 2 mps 620 mmHg 97%
    18:00 +1°C° 2.8 mm 2 mps 620 mmHg 97%
    19:00 +1°C° 2.8 mm 2 mps 620 mmHg 97%
    20:00 -1°C° 2.8 mm 2 mps 619 mmHg 98%
    21:00 -1°C° 2.8 mm 2 mps 619 mmHg 98%
    22:00 -2°C° 2.8 mm 2 mps 619 mmHg 98%
    23:00 -2°C° 2.3 mm 2 mps 619 mmHg 98%

    28 October, Sunday

    Time Temperature Precipitation Wind Pressure Humidity
    00:00 -3°C° 2.3 mm 2 mps 619 mmHg 98%
    01:00 -3°C° 2.3 mm 2 mps 619 mmHg 98%
    02:00 -3°C° 1.2 mm 2 mps 619 mmHg 98%
    03:00 -4°C° 1.2 mm 2 mps 619 mmHg 98%
    04:00 -4°C° 1.2 mm 2 mps 619 mmHg 97%
    05:00 -2°C° 1.1 mm 1 mps 619 mmHg 97%
    06:00 -2°C° 1.1 mm 1 mps 619 mmHg 97%
    07:00 -2°C° 1.1 mm 1 mps 620 mmHg 97%
    08:00 -2°C° 0.6 mm 1 mps 620 mmHg 96%
    09:00 -1°C° 0.6 mm 1 mps 621 mmHg 94%
    10:00 -1°C° 0.6 mm 1 mps 621 mmHg 92%
    11:00 -1°C° 0.6 mm 1 mps 622 mmHg 92%
    12:00 0°C° 0.6 mm 1 mps 622 mmHg 93%
    13:00 -2°C° 0.6 mm 2 mps 623 mmHg 93%
    14:00 0°C° 0.6 mm 1 mps 623 mmHg 93%
    15:00 0°C° 0.6 mm 1 mps 623 mmHg 93%
    16:00 -1°C° 0.6 mm 1 mps 624 mmHg 94%
    17:00 -2°C° 0.3 mm 1 mps 624 mmHg 94%
    18:00 -3°C° 0.3 mm 1 mps 624 mmHg 95%
    19:00 -4°C° 0.3 mm 1 mps 625 mmHg 96%
    20:00 -4°C° 0.1 mm 1 mps 625 mmHg 94%
    21:00 -6°C° 0.1 mm 1 mps 626 mmHg 93%
    22:00 -6°C° 0.1 mm 1 mps 626 mmHg 92%
    23:00 -6°C° 0 mm 1 mps 626 mmHg 90%
    Show more